Location: Cisewo
(53.3833°N, 14.9000°E)
Time: 12:39:59
(UTC+00:00)

USA 229 - Pass Details

Date: 04 August 2021
Orbit: 956 x 1256 km, 63.5° (Epoch: 08 August)

Event Time Altitude Azimuth Distance (km) Brightness Sun altitude
Rises 19:36:10 0° 310° (NW) 3,898 9.5 -6.4°
Reaches altitude 10° 19:38:46 10° 312° (NW) 2,982 7.9 -6.7°
Maximum altitude 19:45:56 74° 38° (NE) 1,216 4.1 -7.5°
Drops below altitude 10° 19:53:35 10° 124° (SE) 3,173 5.5 -8.3°
Enters shadow 19:53:46 - 124° (SE) 3,235 5.6 -8.4°
